Regional Weather Roundup
Issued by NWS Jackson, KY

Home | Current Version | Previous Version | Text Only | Print | Product List | Glossary On
Versions: 1 2 3 4 5 6 7 8 9 10 11 12 13 14 15 16 17 18 19 20 21 22 23 24 25 26 27 28 29 30 31 32 33 34 35 36 37 38 39 40 41 42 43 44 45 46 47 48 49
945
ASUS43 KJKL 032010
RWRJKL

EAST KENTUCKY HOURLY WEATHER ROUNDUP
NATIONAL WEATHER SERVICE JACKSON KY
400 PM EDT TUE MAY 03 2016

NOTE: "FAIR" INDICATES FEW OR NO CLOUDS BELOW 12,000 FEET WITH
NO SIGNIFICANT WEATHER AND/OR OBSTRUCTIONS TO VISIBILITY.

* THESE REPORTS ARE NOT UNDER NWS QUALITY CONTROL AND MAY NOT
  REPORT WEATHER SUCH AS PRECIPITATION AND FOG.

KYZ079-080-083-085-087-088-110-112-115-119-120-032100
...EASTERN KENTUCKY...

CITY           SKY/WX    TMP DP  RH WIND       PRES   REMARKS
JACKSON        CLOUDY    62  47  57 W12G21    29.88S
LONDON         PTSUNNY   62  46  55 W13       29.89F
SOMERSET*      CLOUDY    61  46  59 W9G17     29.93S
MONTICELLO*    CLOUDY    64  49  57 NW15      29.93F
WILLIAMSBURG*  MOCLDY    59  45  58 W8        29.89F
MIDDLESBORO*   CLOUDY    66  49  55 NW13G18   29.88S
HARLAN APT*    CLOUDY    63  45  51 W10       29.88F
HAZARD APT*    CLOUDY    64  48  55 NW9G16    29.88S
BLACK MTN*       N/A     55  50  82 W2          N/A
PIKE CO APT*   CLOUDY    62  52  68 W7        29.86F
BIG SANDY APT* CLOUDY    62  52  68 W6        29.86F
MOREHEAD APT*  CLOUDY    61  48  63 W10       29.89F
$$

KYZ035-036-041-042-044-050-067-078-099-032100
...CENTRAL KENTUCKY...

CITY           SKY/WX    TMP DP  RH WIND       PRES   REMARKS
MT STERLING*   CLOUDY    61  50  67 W8        29.90F
FLEMING/MASON* CLOUDY    59  50  71 NW6       29.88F
DANVILLE*      CLOUDY    61  46  59 W7        29.92F
RICHMOND*      CLOUDY    61  46  59 W8        29.90F
LEXINGTON      CLOUDY    60  46  59 SW8       29.90F
FRANKFORT      CLOUDY    62  45  53 W7        29.89F
LOUISVILLE     CLOUDY    63  44  50 NW15      29.90S
LEBANON*       CLOUDY    61  46  59 W8        29.92F
BOWLING GREEN  CLOUDY    63  45  51 W8        29.94S
$$

KYZ091>093-OHZ055-061-077-WVZ005-015-034-035-042-032100
...SOUTHERN OHIO/WEST VIRGINIA...

CITY           SKY/WX    TMP DP  RH WIND       PRES   REMARKS
COVINGTON      CLOUDY    59  48  67 NW8       29.88F
COLUMBUS       CLOUDY    58  45  62 N7        29.85F
DAYTON         CLOUDY    57  45  64 NW3       29.89F
WILMINGTON     CLOUDY    57  48  72 N9        29.87F
HUNTINGTON     CLOUDY    60  55  83 NW5       29.86F
CHARLESTON     CLOUDY    59  53  80 NW6       29.84F
PINEVILLE*     CLOUDY    65  50  58 MISG      29.87F
BECKLEY        PTSUNNY   61  50  67 W13       29.83F
$$

VAZ002-007-008-TNZ017-027-036-066-071-032100
...SOUTHWEST VIRGINIA/EAST TENNESSEE...

CITY           SKY/WX    TMP DP  RH WIND       PRES   REMARKS
WISE*          PTSUNNY   61  43  51 W5        29.88F
BRISTOL        PTSUNNY   70  54  56 NW14G20   29.84F
MORRISTOWN*    CLOUDY    66  52  59 NW12      29.85F
SEVIERVILLE*   PTCLDY    70  54  56 W6        29.84F
KNOXVILLE      PTSUNNY   71  52  50 W15       29.85F
OAK RIDGE      CLOUDY    71  47  42 W7        29.87F
CROSSVILLE     PTSUNNY   63  48  58 NW12      29.92F
NASHVILLE      PTSUNNY   66  47  50 N12G17    29.94F
$$

...KEY TO REMARKS...
VSB - VISIBILITY IN MILES
WCI - WIND CHILL INDEX
HX  - HEAT INDEX

$$




USA.gov is the U.S. government's official web portal to all federal, state and local government web resources and services.